Change the Weather History Date:

Friday, October 26, 2012

  Actual Average Record
Temperature  
Mean Temperature 56 °F 62 °F  
Max Temperature 65 °F 75 °F 87 °F (2004)
Min Temperature 47 °F 49 °F 27 °F (1955)
Degree Days  
Heating Degree Days 9 5  
Month to date heating degree days 80 68  
Since 1 July heating degree days 84 73  
Cooling Degree Days 0 2  
Month to date cooling degree days 56 102  
Year to date cooling degree days 2388 2199  
Growing Degree Days 5 (Base 50)    
Moisture  
Dew Point 51 °F    
Average Humidity 86    
Maximum Humidity 100    
Minimum Humidity 72    
Precipitation  
Precipitation T in 0.15 in 2.38 in (1996)
Month to date precipitation 0.71 4.03  
Year to date precipitation 44.29 43.49  
Sea Level Pressure  
Sea Level Pressure 30.09 in    
Wind  
Wind Speed 10 mph (North)    
Max Wind Speed 20 mph    
Max Gust Speed 25 mph    
Visibility 10 miles    
Events Rain    
T = Trace of Precipitation, MM = Missing Value Source: NWS Daily Summary

Daily Weather History Graph

Daily Weather History Graph

Search for Another Location

Airport or City:

Trip Planner

Search our weather history database for the weather conditions in past years. The results will help you decide how hot, cold, wet, or windy it might be!

Date:

Astronomy

Oct. 26, 2012 Rise Set
Actual Time 7:16 AM CDT 6:18 PM CDT
Civil Twilight 6:51 AM CDT 6:43 PM CDT
Nautical Twilight 6:22 AM CDT 7:12 PM CDT
Astronomical Twilight 5:54 AM CDT 7:41 PM CDT
Moon 4:27 PM CDT (10/26) 4:21 AM CDT (10/26)
Length of Visible Light 11h 52m
Length of Day
11h 02m
Waxing Gibbous, 91% of the Moon is Illuminated
Oct 26
Waxing Gibbous
Oct 29
Full
Nov 6
Last Quarter
Nov 13
New
Nov 20
First Quarter

Hourly Weather History & Observations

Time (CDT) Temp. Dew Point Humidity Pressure Visibility Wind Dir Wind Speed Gust Speed Precip Events Conditions
1:53 AM 57.9 °F 57.0 °F 97% 29.99 in 9.0 mi Calm Calm - N/A   Clear
2:53 AM 57.0 °F 55.9 °F 96% 29.99 in 6.0 mi Calm Calm - N/A   Clear
3:53 AM 57.0 °F 55.9 °F 96% 29.97 in 3.0 mi Calm Calm - N/A   Scattered Clouds
4:53 AM 57.0 °F 55.9 °F 96% 29.97 in 8.0 mi Calm Calm - N/A   Clear
5:53 AM 64.0 °F 62.1 °F 93% 30.01 in 10.0 mi North 4.6 mph - N/A   Overcast
6:53 AM 62.1 °F 60.1 °F 93% 30.03 in 10.0 mi North 10.4 mph - N/A   Mostly Cloudy
7:53 AM 57.9 °F 54.0 °F 87% 30.07 in 10.0 mi North 10.4 mph 20.7 mph N/A   Mostly Cloudy
8:13 AM 59.0 °F 53.6 °F 82% 30.04 in 10.0 mi North 12.7 mph - N/A   Scattered Clouds
8:37 AM 59.0 °F 53.6 °F 82% 30.06 in 10.0 mi North 15.0 mph 21.9 mph N/A   Mostly Cloudy
8:53 AM 59.0 °F 53.1 °F 81% 30.08 in 10.0 mi North 12.7 mph 21.9 mph N/A   Mostly Cloudy
9:12 AM 59.0 °F 53.6 °F 82% 30.07 in 10.0 mi North 16.1 mph - N/A   Mostly Cloudy
9:53 AM 61.0 °F 53.1 °F 75% 30.09 in 10.0 mi NNE 11.5 mph - N/A   Overcast
10:53 AM 59.0 °F 52.0 °F 78% 30.11 in 10.0 mi NNE 10.4 mph - N/A   Overcast
11:53 AM 60.1 °F 52.0 °F 75% 30.12 in 10.0 mi North 12.7 mph 18.4 mph N/A   Overcast
12:53 PM 61.0 °F 51.1 °F 70% 30.11 in 10.0 mi North 12.7 mph 19.6 mph N/A   Overcast
1:53 PM 57.9 °F 50.0 °F 75% 30.11 in 10.0 mi North 9.2 mph - N/A   Overcast
2:53 PM 57.9 °F 51.1 °F 78% 30.09 in 10.0 mi North 10.4 mph - 0.00 in Rain Light Rain
3:53 PM 55.0 °F 48.9 °F 80% 30.11 in 10.0 mi North 13.8 mph 20.7 mph 0.00 in   Overcast
4:30 PM 51.8 °F 48.2 °F 88% 30.09 in 10.0 mi North 12.7 mph 25.3 mph N/A   Overcast
4:53 PM 52.0 °F 46.9 °F 83% 30.12 in 10.0 mi North 13.8 mph 20.7 mph N/A   Overcast
5:53 PM 51.1 °F 46.9 °F 86% 30.13 in 10.0 mi North 12.7 mph 20.7 mph N/A   Overcast
6:53 PM 48.9 °F 45.0 °F 86% 30.15 in 10.0 mi North 11.5 mph 19.6 mph N/A   Overcast
7:53 PM 48.0 °F 44.1 °F 86% 30.18 in 10.0 mi North 12.7 mph 21.9 mph N/A   Overcast
8:02 PM 48.2 °F 42.8 °F 82% 30.16 in 10.0 mi North 10.4 mph 23.0 mph N/A   Overcast
8:39 PM 48.2 °F 42.8 °F 82% 30.16 in 10.0 mi North 13.8 mph 20.7 mph N/A   Overcast
8:53 PM 48.0 °F 43.0 °F 83% 30.19 in 10.0 mi North 16.1 mph 21.9 mph N/A   Overcast
9:53 PM 46.9 °F 42.1 °F 83% 30.19 in 10.0 mi North 16.1 mph 23.0 mph N/A   Overcast
10:53 PM 46.9 °F 42.1 °F 83% 30.20 in 10.0 mi North 8.1 mph 19.6 mph N/A   Overcast